Dewpoint
29 30 31 30 30 29 29 29 29 30 29 28 27 27 28 28 28 29 30 31 30 31 31 31 32 31 30 30 31 31 32 32 32 32 32 32 31 31 31 32 32 32 32 32 33 34 34 34 34 33 33 32 32 32 32 32 31 31 32 32 32 32 32 31 31 31 30 30 31
29 30 30 30 30 29 29 28 30 30 30 29 28 28 28 28 28 28 28 29 30 31 31 32 31 30 30 30 31 31 31 31 32 32 32 32 32 31 31 32 32 32 32 32 33 33 34 34 33 32 32 33 32 32 32 31 30 30 31 31 32 32 32 31 31 30 30 30 29
28 29 29 30 30 29 28 28 28 28 28 29 29 29 28 28 28 28 27 28 28 29 29 29 28 29 30 30 31 31 31 31 31 31 32 32 32 32 32 32 32 32 31 32 32 32 32 32 32 32 32 32 32 31 31 31 30 30 30 30 31 32 31 31 30 30 29 30 29
28 28 29 30 30 29 28 28 27 28 28 28 28 28 28 29 28 27 27 27 27 28 28 27 26 27 29 30 30 30 31 31 31 31 31 32 32 32 32 32 32 31 31 31 31 31 31 31 32 32 32 31 31 30 30 30 29 29 29 30 31 30 30 30 30 30 29 28 28
28 28 29 30 30 29 28 27 27 28 28 29 29 28 28 26 26 25 25 25 27 28 28 26 24 25 27 28 29 30 31 31 31 31 31 31 31 32 32 32 31 31 31 30 29 29 29 30 31 31 31 30 30 29 28 28 28 29 29 30 30 29 29 29 29 29 28 28 28
27 28 29 30 30 30 28 28 28 28 29 29 28 28 27 28 28 27 27 26 27 28 28 27 26 26 27 28 28 29 30 31 32 32 31 31 31 32 32 31 30 29 29 29 29 28 28 28 29 29 29 29 28 27 28 28 28 28 28 29 29 28 28 28 28 28 28 27 27
27 27 28 28 28 28 28 28 28 28 28 28 27 27 27 27 27 27 27 28 29 29 28 28 27 27 28 27 28 28 29 30 31 32 32 32 32 31 29 29 28 28 28 28 28 28 28 28 28 28 29 29 28 27 27 28 27 27 27 27 28 28 28 28 28 28 28 27 26
26 26 26 26 25 26 26 27 28 28 28 28 27 27 28 27 27 28 29 29 29 29 28 27 27 27 27 27 27 27 28 28 29 31 32 32 31 29 28 28 28 27 27 27 27 27 28 28 29 29 28 28 28 28 28 27 27 26 26 26 28 28 28 27 27 27 28 27 26
25 24 24 24 24 25 25 26 27 28 28 28 27 28 28 28 28 28 28 29 29 28 28 27 27 27 27 26 26 26 27 27 28 29 30 30 28 28 27 27 27 27 27 26 27 27 28 29 29 29 28 28 28 28 28 26 26 26 26 27 28 28 28 27 26 27 28 27 26
23 23 23 23 25 25 25 26 27 28 28 28 28 29 29 29 28 28 28 28 28 28 28 26 26 25 25 25 25 25 26 27 27 27 28 28 27 27 27 27 27 27 26 26 27 28 28 28 28 27 28 28 28 27 27 26 25 26 26 27 27 27 27 27 27 27 27 26 25
23 22 23 23 25 25 25 26 27 28 28 28 28 29 29 28 28 28 28 28 28 27 26 25 24 23 23 24 25 26 27 27 28 28 28 28 28 28 27 27 27 26 25 25 26 27 27 26 25 24 25 28 28 27 26 26 25 26 26 27 26 26 27 27 26 26 25 25 24
22 22 23 23 24 24 24 25 26 27 28 27 28 28 28 28 28 28 27 27 27 26 25 24 23 24 24 25 26 27 28 28 28 28 28 28 28 27 27 27 25 24 24 25 26 26 25 25 25 24 24 25 27 26 26 25 25 25 26 26 26 26 26 26 26 25 25 24 25
22 22 23 23 23 24 24 24 25 26 26 26 26 27 28 27 27 27 26 26 25 24 23 24 24 25 26 27 27 28 28 28 28 28 28 27 27 26 26 25 24 23 24 25 26 26 25 25 25 25 24 24 25 25 26 26 25 25 25 26 26 26 26 26 26 25 24 24 25
22 22 22 23 23 23 23 24 24 25 25 25 25 26 26 27 27 26 25 24 24 23 23 24 25 26 27 28 28 28 28 28 28 28 27 27 26 25 24 24 23 24 24 25 25 25 25 25 25 25 25 24 24 25 25 26 26 26 26 26 26 26 26 26 26 25 25 25 25
23 22 22 23 23 23 23 24 24 24 25 25 24 24 25 25 26 25 24 24 23 23 24 25 27 28 28 28 28 28 28 28 28 27 27 25 24 24 24 24 24 24 24 24 24 25 25 25 25 25 25 25 25 25 25 25 25 26 26 26 26 27 27 27 26 26 26 26 25
22 22 22 23 23 23 23 24 24 24 24 24 24 24 24 24 25 25 24 23 24 25 25 26 27 28 28 29 28 28 28 28 27 27 26 24 24 24 24 24 24 24 24 24 24 24 25 25 25 25 25 25 25 25 25 25 25 26 26 27 27 27 26 26 26 25 25 25 24
22 22 22 22 23 23 23 24 24 24 24 24 23 23 24 24 24 25 25 24 25 25 26 27 28 28 29 29 29 28 28 28 27 26 25 24 25 25 25 25 25 25 24 24 24 24 24 25 25 26 26 26 26 26 26 26 26 27 27 27 27 26 25 25 24 24 24 24 23
22 22 22 22 23 23 23 23 24 24 24 24 24 24 24 24 25 25 25 25 26 26 26 27 28 28 28 29 29 28 28 28 27 26 25 25 25 25 25 25 25 25 25 25 25 25 25 25 25 26 26 27 27 27 27 27 27 27 26 26 25 24 23 23 23 23 23 23 23
21 21 22 22 22 23 23 24 24 24 24 24 24 24 24 25 25 25 25 26 26 27 27 28 28 28 28 28 28 28 28 28 27 26 25 25 25 25 25 25 25 25 25 25 25 26 26 26 26 27 27 27 27 27 27 27 26 25 24 23 23 23 23 23 23 23 23 23 22
21 21 21 22 22 22 23 23 24 24 24 24 24 24 25 25 25 25 25 26 27 27 27 28 28 28 29 29 28 28 28 27 27 26 26 25 25 25 25 25 25 25 26 26 27 28 28 28 28 28 28 28 27 26 25 24 24 23 23 23 23 23 23 23 23 23 22 22 21
21 21 21 21 22 22 23 23 24 24 24 24 24 25 25 25 25 25 25 26 28 28 28 28 28 28 28 28 28 27 27 27 27 26 26 26 26 26 26 26 26 26 27 28 28 28 28 28 28 27 27 26 25 24 23 23 23 23 23 23 23 22 22 22 22 21 21 21 20
21 21 21 21 22 22 22 23 23 24 24 24 25 25 25 25 25 25 26 27 28 28 28 28 28 28 28 28 28 27 26 27 27 27 26 26 26 26 26 27 27 27 27 28 28 28 27 27 26 25 24 24 23 23 23 23 22 22 21 21 21 21 21 21 20 20 20 19 19
21 21 21 21 22 22 23 23 23 24 24 25 25 25 25 25 25 26 27 28 29 29 28 28 28 28 28 28 27 27 26 27 27 27 26 26 26 26 26 27 26 26 27 27 27 26 25 24 23 23 23 23 23 22 22 22 21 20 20 20 20 19 19 19 19 19 19 19 19
21 21 21 21 22 22 23 23 23 24 25 25 25 25 25 25 26 27 28 28 28 28 28 28 28 28 28 27 27 26 26 27 27 26 26 26 26 26 26 25 26 26 27 27 27 26 24 23 23 22 22 22 21 21 21 21 20 20 19 19 19 19 19 19 18 18 18 18 18
21 21 22 22 22 22 23 23 24 24 25 25 26 26 25 25 26 26 26 26 26 26 26 26 26 27 27 27 27 26 26 26 26 26 26 26 25 25 24 24 25 27 28 29 30 29 27 25 23 21 20 20 20 20 20 20 20 20 19 19 19 18 18 18 18 18 18 18 18
21 21 22 22 22 23 23 24 24 25 25 26 26 26 25 25 25 24 24 23 23 23 23 23 23 25 26 27 27 27 27 27 27 27 26 25 24 23 24 24 26 27 28 30 31 31 29 28 25 23 20 19 19 19 19 19 19 19 19 18 18 18 17 17 17 18 18 18 18
22 22 22 23 23 23 24 24 25 25 26 26 26 26 25 24 23 23 23 22 22 22 22 23 23 25 27 27 27 27 27 27 27 27 26 24 23 23 24 25 25 26 28 30 31 31 30 29 28 25 22 19 19 19 19 19 19 19 18 18 17 17 17 17 17 18 18 18 18
22 22 23 23 24 24 24 25 25 25 26 26 26 25 25 23 23 23 23 23 23 23 23 24 25 27 28 28 27 26 26 26 27 26 24 23 23 23 24 25 26 27 28 30 31 30 30 29 28 27 24 20 19 19 19 19 19 18 18 17 17 17 17 17 17 17 17 17 17
22 23 23 24 24 25 25 25 25 26 26 26 26 25 24 24 24 24 24 23 24 25 26 27 28 29 29 28 28 27 26 25 26 25 23 22 23 24 25 26 27 28 29 31 31 30 29 29 29 28 27 24 20 19 19 19 18 18 17 17 16 16 16 17 17 17 17 16 16
23 23 24 24 25 25 25 25 25 26 26 26 26 25 25 25 25 25 24 24 25 26 28 29 29 29 29 28 28 27 27 26 25 23 23 22 23 24 25 27 27 28 29 31 30 29 29 28 28 29 29 27 22 19 18 17 17 17 17 17 16 16 16 16 16 16 16 16 16
23 24 24 25 25 25 25 25 26 26 26 26 26 26 26 26 26 26 26 26 27 28 29 29 29 28 28 28 28 28 27 26 24 23 22 22 23 24 26 27 27 28 29 31 30 29 28 28 28 28 28 28 23 20 18 17 16 16 16 16 16 16 15 15 15 15 15 15 15
24 24 25 25 25 25 25 26 26 26 26 26 27 27 28 28 28 28 28 28 28 29 30 29 28 28 28 29 28 28 27 26 24 23 22 22 23 24 26 27 28 28 29 31 30 29 28 28 27 27 28 28 25 21 17 16 16 15 15 15 15 15 15 15 15 15 15 15 15
24 25 25 26 25 25 26 26 27 27 28 28 28 28 28 28 29 29 29 29 29 29 29 29 28 28 28 28 28 27 26 25 24 23 23 23 23 25 26 27 28 28 29 31 30 30 29 28 27 27 28 28 24 20 17 16 15 15 15 15 15 15 15 15 15 15 15 15 15
25 25 25 25 25 25 26 27 27 28 29 28 28 28 28 29 29 29 29 29 30 30 29 29 28 28 28 28 27 26 25 25 24 23 23 23 24 25 26 27 27 28 30 31 31 30 29 28 27 27 27 28 23 19 16 15 15 15 15 15 15 15 15 15 15 15 15 15 15
25 25 26 25 25 25 26 27 28 29 29 29 29 30 30 30 30 30 30 30 30 30 30 29 29 28 28 27 27 26 25 24 23 23 23 23 24 24 25 26 27 29 31 32 31 30 29 28 28 27 27 26 21 17 15 15 15 15 15 15 15 15 15 15 15 15 15 15 15
25 27 28 27 26 26 27 28 29 30 30 31 31 31 32 32 32 32 32 32 31 30 30 29 28 28 27 27 26 26 25 23 23 23 23 23 23 24 24 25 27 29 31 32 30 29 28 28 28 27 26 23 18 16 15 14 14 14 14 14 15 15 15 15 15 15 15 15 15
26 28 30 29 27 27 28 30 31 32 32 32 32 33 33 34 35 35 34 33 32 31 29 28 28 27 26 25 25 25 25 24 23 23 23 23 23 23 23 24 26 28 30 31 30 29 28 28 28 27 25 21 16 14 14 14 14 14 14 14 14 14 14 14 14 15 15 14 15
26 28 30 30 29 31 32 33 33 33 34 34 35 36 37 37 37 37 35 33 31 29 28 27 26 26 25 25 25 25 26 24 23 23 22 23 23 23 23 24 25 27 29 31 30 29 28 28 28 27 24 18 15 14 14 14 13 14 14 14 14 13 13 13 13 14 14 14 18
27 29 30 31 32 33 34 34 34 35 36 37 37 38 38 38 37 35 33 31 29 28 27 26 26 25 25 25 25 25 25 25 23 23 22 22 22 23 23 24 25 26 28 30 30 29 29 28 28 27 24 18 14 14 14 13 13 13 13 13 13 12 12 12 12 12 13 13 20
29 31 32 33 33 33 34 34 36 37 37 38 38 38 37 36 34 32 31 29 28 27 26 26 25 25 25 26 25 25 24 25 24 23 22 22 23 24 25 23 24 26 27 30 30 30 29 28 28 27 24 18 14 13 13 13 13 13 12 12 12 12 12 11 11 11 12 12 17
32 32 32 33 34 34 35 37 37 38 38 38 38 37 35 32 31 30 29 28 28 27 26 25 25 25 26 26 25 24 23 24 24 23 22 22 24 26 26 23 24 25 26 29 30 30 29 29 28 27 25 19 14 13 13 13 13 13 12 11 11 11 11 11 11 11 11 12 13